Location: *
(50.9167°S, 179.4000°W)
Time: 19:59:37
(UTC+00:00)

SeaSat 1 - Pass Details

Date: 03 March 2024
Orbit: 741 x 743 km, 108.0° (Epoch: 16 April)

Event Time Altitude Azimuth Distance (km) Brightness Sun altitude
Exits shadow 12:34:37 44° 168° (SSE) 1,039 3.5 -32.3°
Drops below altitude 10° 12:38:24 10° 203° (SSW) 2,295 5.6 -32.2°
Sets 12:40:44 0° 207° (SSW) 3,225 6.4 -32.2°
